TimeEDT,TemperatureF,Dew PointF,Humidity,Sea Level PressureIn,VisibilityMPH,Wind Direction,Wind SpeedMPH,Gust SpeedMPH,PrecipitationIn,Events,Conditions,WindDirDegrees,DateUTC
12:53 AM,66.0,64.0,93,30.02,10.0,Calm,Calm,-,N/A,,Scattered Clouds,0,2013-08-01 04:53:00
1:53 AM,66.0,64.0,93,30.00,9.0,Calm,Calm,-,N/A,,Overcast,0,2013-08-01 05:53:00
2:53 AM,66.0,64.0,93,29.98,9.0,Calm,Calm,-,N/A,,Partly Cloudy,0,2013-08-01 06:53:00
3:53 AM,64.9,64.0,97,29.96,7.0,Calm,Calm,-,N/A,,Clear,0,2013-08-01 07:53:00
4:53 AM,64.9,64.0,97,29.96,7.0,Calm,Calm,-,N/A,,Clear,0,2013-08-01 08:53:00
5:53 AM,64.9,64.0,97,29.95,6.0,Calm,Calm,-,N/A,,Scattered Clouds,0,2013-08-01 09:53:00
6:53 AM,66.0,64.9,96,29.95,5.0,North,-9999.0,-,N/A,,Overcast,0,2013-08-01 10:53:00
7:53 AM,68.0,64.9,90,29.95,8.0,Calm,Calm,-,N/A,,Overcast,0,2013-08-01 11:53:00
8:50 AM,68.0,66.2,94,29.95,1.8,South,5.8,-,0.04,Rain,Light Rain,170,2013-08-01 12:50:00
8:53 AM,68.0,66.0,93,29.94,1.8,SSE,3.5,-,0.05,Rain,Light Rain,150,2013-08-01 12:53:00
9:08 AM,68.0,66.2,94,29.94,2.0,South,3.5,-,0.03,Rain,Light Rain,170,2013-08-01 13:08:00
9:10 AM,68.0,66.2,94,29.94,1.8,South,3.5,-,0.04,Rain,Light Rain,170,2013-08-01 13:10:00
9:26 AM,68.0,66.2,94,29.94,2.0,Calm,Calm,-,0.04,Rain,Light Rain,0,2013-08-01 13:26:00
9:46 AM,68.0,66.2,94,29.93,3.0,Calm,Calm,-,0.05,,Overcast,0,2013-08-01 13:46:00
9:53 AM,68.0,66.9,96,29.94,2.5,SSE,4.6,-,0.05,Rain,Light Rain,150,2013-08-01 13:53:00
10:03 AM,68.0,66.2,94,29.93,1.8,SSE,5.8,16.1,0.02,Rain,Light Rain,160,2013-08-01 14:03:00
10:13 AM,68.0,66.2,94,29.94,2.0,South,3.5,-,0.02,Rain,Light Rain,170,2013-08-01 14:13:00
10:22 AM,68.0,66.2,94,29.93,1.2,SSE,5.8,-,0.08,Rain,Rain,150,2013-08-01 14:22:00
10:34 AM,68.0,66.2,94,29.93,2.0,SSE,6.9,-,0.10,Rain,Light Rain,150,2013-08-01 14:34:00
10:39 AM,68.0,66.2,94,29.93,1.8,SE,6.9,-,0.11,Rain,Light Rain,140,2013-08-01 14:39:00
10:50 AM,66.2,66.2,100,29.93,3.0,SSE,9.2,-,0.12,Rain,Light Rain,150,2013-08-01 14:50:00
10:51 AM,66.9,66.0,97,29.93,3.0,SSE,9.2,-,0.12,Rain,Light Rain,160,2013-08-01 14:51:00
10:59 AM,66.2,66.2,100,29.93,3.0,SSE,6.9,-,0.00,Rain,Light Rain,150,2013-08-01 14:59:00
11:18 AM,66.2,64.4,94,29.93,1.8,SSE,6.9,-,0.04,Rain,Rain,160,2013-08-01 15:18:00
11:43 AM,66.2,64.4,94,29.93,3.0,SSE,4.6,-,0.09,Rain,Light Rain,150,2013-08-01 15:43:00
11:53 AM,66.0,64.9,96,29.93,3.0,SSE,4.6,-,0.09,Rain,Light Rain,150,2013-08-01 15:53:00
12:00 PM,66.2,64.4,94,29.93,2.5,Calm,Calm,-,0.01,Rain,Light Rain,0,2013-08-01 16:00:00
12:09 PM,66.2,64.4,94,29.93,1.2,Calm,Calm,-,0.05,Rain,Rain,0,2013-08-01 16:09:00
12:53 PM,66.9,66.0,97,29.92,1.5,Variable,3.5,-,0.20,Rain,Rain,0,2013-08-01 16:53:00
1:06 PM,66.2,66.2,100,29.92,1.5,SSE,5.8,-,0.03,Rain,Light Rain,150,2013-08-01 17:06:00
1:15 PM,66.2,66.2,100,29.91,2.0,SSE,5.8,-,0.05,Rain,Light Rain,150,2013-08-01 17:15:00
1:17 PM,66.2,66.2,100,29.91,2.0,Variable,4.6,-,0.05,Rain,Light Rain,0,2013-08-01 17:17:00
1:34 PM,66.2,64.4,94,29.90,3.0,Variable,3.5,-,0.05,Rain,Light Rain,0,2013-08-01 17:34:00
1:53 PM,66.9,66.0,97,29.89,4.0,Variable,3.5,-,0.05,Rain,Light Rain,0,2013-08-01 17:53:00
2:13 PM,66.2,66.2,100,29.89,2.5,Calm,Calm,-,0.01,Rain,Light Rain,0,2013-08-01 18:13:00
2:27 PM,66.2,66.2,100,29.89,1.8,Calm,Calm,-,0.02,Rain,Light Rain,0,2013-08-01 18:27:00
2:42 PM,66.2,66.2,100,29.88,2.5,Calm,Calm,-,0.03,Rain,Light Rain,0,2013-08-01 18:42:00
2:53 PM,66.9,66.0,97,29.88,2.5,SE,3.5,-,0.04,Rain,Light Rain,140,2013-08-01 18:53:00
3:07 PM,68.0,66.2,94,29.88,3.0,Calm,Calm,-,0.01,Rain,Light Rain,0,2013-08-01 19:07:00
3:15 PM,68.0,66.2,94,29.87,2.0,Calm,Calm,-,0.04,Rain,Light Rain,0,2013-08-01 19:15:00
3:31 PM,68.0,66.2,94,29.86,3.0,East,3.5,-,0.05,Rain,Light Rain,80,2013-08-01 19:31:00
3:53 PM,68.0,66.9,96,29.86,4.0,Variable,3.5,-,0.06,,Overcast,0,2013-08-01 19:53:00
4:12 PM,68.0,66.2,94,29.86,3.0,Calm,Calm,-,N/A,,Overcast,0,2013-08-01 20:12:00
4:24 PM,69.8,66.2,88,29.85,2.5,Variable,3.5,-,0.00,Rain,Light Rain,0,2013-08-01 20:24:00
4:33 PM,69.8,66.2,88,29.85,1.8,Calm,Calm,-,0.00,Rain,Light Rain,0,2013-08-01 20:33:00
4:45 PM,69.8,68.0,94,29.85,2.5,Variable,5.8,-,0.01,Rain,Light Rain,0,2013-08-01 20:45:00
4:53 PM,69.1,68.0,96,29.84,3.0,Calm,Calm,-,0.01,Rain,Light Rain,0,2013-08-01 20:53:00
5:02 PM,69.8,68.0,94,29.84,4.0,Calm,Calm,-,0.00,Rain,Light Rain,0,2013-08-01 21:02:00
5:21 PM,69.8,68.0,94,29.84,2.5,Calm,Calm,-,0.00,Rain,Light Rain,0,2013-08-01 21:21:00
5:53 PM,70.0,68.0,93,29.83,1.5,Calm,Calm,-,0.01,,Overcast,0,2013-08-01 21:53:00
6:45 PM,69.8,68.0,94,29.84,2.0,SSE,3.5,-,0.01,,Overcast,160,2013-08-01 22:45:00
6:53 PM,69.1,68.0,96,29.83,2.0,Calm,Calm,-,0.01,,Overcast,0,2013-08-01 22:53:00
7:14 PM,69.8,68.0,94,29.84,3.0,Calm,Calm,-,N/A,,Overcast,0,2013-08-01 23:14:00
7:53 PM,70.0,68.0,93,29.85,4.0,Calm,Calm,-,N/A,,Overcast,0,2013-08-01 23:53:00
8:17 PM,69.8,68.0,94,29.84,2.0,Calm,Calm,-,0.00,Rain,Light Rain,0,2013-08-02 00:17:00
8:53 PM,69.1,68.0,96,29.84,3.0,Calm,Calm,-,0.00,,Overcast,0,2013-08-02 00:53:00
9:01 PM,69.8,68.0,94,29.84,2.5,SSE,3.5,-,N/A,,Overcast,160,2013-08-02 01:01:00
9:13 PM,69.8,68.0,94,29.85,3.0,Calm,Calm,-,N/A,,Overcast,0,2013-08-02 01:13:00
9:53 PM,70.0,68.0,93,29.84,4.0,North,3.5,-,N/A,,Overcast,350,2013-08-02 01:53:00
10:07 PM,69.8,68.0,94,29.83,3.0,Calm,Calm,-,N/A,,Overcast,0,2013-08-02 02:07:00
10:39 PM,69.8,68.0,94,29.83,1.8,Calm,Calm,-,0.00,,Overcast,0,2013-08-02 02:39:00
10:48 PM,69.8,68.0,94,29.83,2.0,Calm,Calm,-,0.00,,Overcast,0,2013-08-02 02:48:00
10:49 PM,69.1,68.0,96,29.83,2.0,Calm,Calm,-,0.00,,Overcast,0,2013-08-02 02:49:00
11:00 PM,69.8,68.0,94,29.83,1.5,Calm,Calm,-,N/A,,Overcast,0,2013-08-02 03:00:00
11:11 PM,69.8,68.0,94,29.83,2.5,Calm,Calm,-,N/A,,Overcast,0,2013-08-02 03:11:00
11:31 PM,69.8,68.0,94,29.83,3.0,Calm,Calm,-,N/A,,Overcast,0,2013-08-02 03:31:00
11:53 PM,69.1,68.0,96,29.83,3.0,Calm,Calm,-,N/A,,Overcast,0,2013-08-02 03:53:00